Regional Weather Roundup
Issued by NWS

Home | Current Version | Previous Version | Text Only | Print | Product List | Glossary On
Versions: 1 2 3 4 5 6 7 8 9 10 11 12 13 14 15 16 17 18 19 20 21 22 23 24 25 26 27 28 29 30 31 32 33 34 35 36 37 38 39 40 41 42 43 44 45 46 47 48 49 50
000
ASUS45 KREV 240110
RWRNV
NEVADA REGIONAL WEATHER ROUNDUP
NATIONAL WEATHER SERVICE RENO NV
600 PM PDT THU MAR 23 2017

NOTE: "FAIR" INDICATES FEW OR NO CLOUDS BELOW 12,000 FEET WITH NO
SIGNIFICANT WEATHER AND/OR OBSTRUCTIONS TO VISIBILITY.

NVZ001-003-004-240200-
WESTERN NEVADA

CITY           SKY/WX    TMP DP  RH WIND       PRES   REMARKS
RENO           MOSUNNY   55  26  32 W10G21    30.08R
CARSON CITY    FAIR      50  23  34 W10       30.11R
MINDEN         FAIR      52  21  30 W16G23    30.10R
FALLON         PTSUNNY   58  18  21 NW6       30.05S
LOVELOCK       SUNNY     56  14  19 W8        30.05R
HAWTHORNE      SUNNY     57  14  18 NW6       30.04F
$$

NVZ002-CAZ072-073-240200-
NORTHERN AND CENTRAL SIERRA

CITY           SKY/WX    TMP DP  RH WIND       PRES   REMARKS
S. LAKE TAHOE  SUNNY     41  26  55 S8G21     30.15R
TRUCKEE        MOSUNNY   41  27  56 S7        30.15R
SQUAW VLY 8000 NOT AVBL
SUSANVILLE     SUNNY     50  28  43 SW10G20   30.09R
MAMMOTH LAKES  FAIR      47  15  28 W6        30.12S
BRIDGEPORT       N/A     43  22  43 SW15G24   30.11R
$$

NVZ030-031-036-240200-
NORTHERN NEVADA

CITY           SKY/WX    TMP DP  RH WIND       PRES   REMARKS
ELKO           MOSUNNY   48  25  40 SW9       30.05R
WINNEMUCCA     MOSUNNY   54  26  34 SW13      30.04S
WENDOVER       CLEAR     54  20  26 NW22      29.98R
$$

NVZ035-037-240200-
CENTRAL NEVADA

CITY           SKY/WX    TMP DP  RH WIND       PRES   REMARKS
ELY            CLEAR     45  22  40 NW16      30.03R
EUREKA           N/A     44  26  49 N5        30.07R
$$

NVZ013-014-240200-
SOUTH CENTRAL NEVADA

CITY           SKY/WX    TMP DP  RH WIND       PRES   REMARKS
TONOPAH        SUNNY     53  16  23 N15       30.07R
$$

NVZ017-020-022-240200-
SOUTHERN NEVADA

CITY           SKY/WX    TMP DP  RH WIND       PRES   REMARKS
LAS VEGAS      MOSUNNY   71  22  15 SW6       29.92S
N. LAS VEGAS   MOSUNNY   71  23  16 N12G24    29.93R
NELLIS AFB     MOSUNNY   71  30  22 NE13      29.92R
HENDERSON      MOSUNNY   70  26  19 W10       29.97R
MERCURY        SUNNY     66  16  14 NW15      29.98R
$$



USA.gov is the U.S. government's official web portal to all federal, state and local government web resources and services.